Year,Month,Day,Hour,Minute,Value (Times are PST for temperature in C)
2014,07,31,00,00,19.20
2014,07,31,00,01,19.20
2014,07,31,00,02,19.20
2014,07,31,00,03,19.20
2014,07,31,00,04,19.20
2014,07,31,00,05,19.20
2014,07,31,00,06,19.20
2014,07,31,00,07,19.20
2014,07,31,00,08,19.20
2014,07,31,00,09,19.30
2014,07,31,00,10,19.30
2014,07,31,00,11,19.30
2014,07,31,00,12,19.40
2014,07,31,00,13,19.40
2014,07,31,00,14,19.40
2014,07,31,00,15,19.40
2014,07,31,00,16,19.40
2014,07,31,00,17,19.40
2014,07,31,00,18,19.40
2014,07,31,00,19,19.40
2014,07,31,00,20,19.40
2014,07,31,00,21,19.40
2014,07,31,00,22,19.40
2014,07,31,00,23,19.40
2014,07,31,00,24,19.40
2014,07,31,00,25,19.40
2014,07,31,00,26,19.40
2014,07,31,00,27,19.40
2014,07,31,00,28,19.40
2014,07,31,00,29,19.40
2014,07,31,00,30,19.30
2014,07,31,00,31,19.30
2014,07,31,00,32,19.40
2014,07,31,00,33,19.40
2014,07,31,00,34,19.40
2014,07,31,00,35,19.30
2014,07,31,00,36,19.30
2014,07,31,00,37,19.30
2014,07,31,00,38,19.30
2014,07,31,00,39,19.30
2014,07,31,00,40,19.30
2014,07,31,00,41,19.30
2014,07,31,00,42,19.30
2014,07,31,00,43,19.30
2014,07,31,00,44,19.20
2014,07,31,00,45,19.20
2014,07,31,00,46,19.20
2014,07,31,00,47,19.20
2014,07,31,00,48,19.20
2014,07,31,00,49,19.20
2014,07,31,00,50,19.20
2014,07,31,00,51,19.20
2014,07,31,00,52,19.20
2014,07,31,00,53,19.10
2014,07,31,00,54,19.10
2014,07,31,00,55,19.10
2014,07,31,00,56,19.10
2014,07,31,00,57,19.10
2014,07,31,00,58,19.10
2014,07,31,00,59,19.10
2014,07,31,01,00,19.10
2014,07,31,01,01,19.10
2014,07,31,01,02,19.10
2014,07,31,01,03,19.10
2014,07,31,01,04,19.10
2014,07,31,01,05,19.10
2014,07,31,01,06,19.10
2014,07,31,01,07,19.10
2014,07,31,01,08,19.10
2014,07,31,01,09,19.10
2014,07,31,01,10,19.10
2014,07,31,01,11,19.10
2014,07,31,01,12,19.10
2014,07,31,01,13,19.10
2014,07,31,01,14,19.10
2014,07,31,01,15,19.10
2014,07,31,01,16,19.10
2014,07,31,01,17,19.00
2014,07,31,01,18,18.90
2014,07,31,01,19,18.90
2014,07,31,01,20,18.90
2014,07,31,01,21,18.90
2014,07,31,01,22,18.90
2014,07,31,01,23,18.90
2014,07,31,01,24,18.90
2014,07,31,01,25,18.90
2014,07,31,01,26,18.90
2014,07,31,01,27,18.90
2014,07,31,01,28,18.90
2014,07,31,01,29,18.90
2014,07,31,01,30,18.90
2014,07,31,01,31,18.90
2014,07,31,01,32,18.90
2014,07,31,01,33,18.90
2014,07,31,01,34,18.90
2014,07,31,01,35,18.90
2014,07,31,01,36,18.90
2014,07,31,01,37,18.90
2014,07,31,01,38,18.90
2014,07,31,01,39,18.90
2014,07,31,01,40,18.90
2014,07,31,01,41,18.90
2014,07,31,01,42,18.90
2014,07,31,01,43,18.90
2014,07,31,01,44,18.90
2014,07,31,01,45,18.90
2014,07,31,01,46,18.90
2014,07,31,01,47,18.90
2014,07,31,01,48,18.90
2014,07,31,01,49,18.90
2014,07,31,01,50,18.90
2014,07,31,01,51,18.80
2014,07,31,01,52,18.80
2014,07,31,01,53,18.80
2014,07,31,01,54,18.70
2014,07,31,01,55,18.70
2014,07,31,01,56,18.70
2014,07,31,01,57,18.60
2014,07,31,01,58,18.60
2014,07,31,01,59,18.60
2014,07,31,02,00,18.50
2014,07,31,02,01,18.50
2014,07,31,02,02,18.40
2014,07,31,02,03,18.40
2014,07,31,02,04,18.30
2014,07,31,02,05,18.20
2014,07,31,02,06,18.20
2014,07,31,02,07,18.10
2014,07,31,02,08,18.10
2014,07,31,02,09,18.00
2014,07,31,02,10,17.90
2014,07,31,02,11,17.90
2014,07,31,02,12,17.80
2014,07,31,02,13,17.70
2014,07,31,02,14,17.70
2014,07,31,02,15,17.60
2014,07,31,02,16,17.50
2014,07,31,02,17,17.40
2014,07,31,02,18,17.40
2014,07,31,02,19,17.30
2014,07,31,02,20,17.30
2014,07,31,02,21,17.30
2014,07,31,02,22,17.30
2014,07,31,02,23,17.20
2014,07,31,02,24,17.20
2014,07,31,02,25,17.20
2014,07,31,02,26,17.20
2014,07,31,02,27,17.10
2014,07,31,02,28,17.10
2014,07,31,02,29,17.10
2014,07,31,02,30,17.00
2014,07,31,02,31,17.00
2014,07,31,02,32,17.00
2014,07,31,02,33,17.00
2014,07,31,02,34,17.00
2014,07,31,02,35,17.00
2014,07,31,02,36,16.90
2014,07,31,02,37,16.90
2014,07,31,02,38,16.90
2014,07,31,02,39,16.90
2014,07,31,02,40,16.80
2014,07,31,02,41,16.80
2014,07,31,02,42,16.70
2014,07,31,02,43,16.70
2014,07,31,02,44,16.70
2014,07,31,02,45,16.70
2014,07,31,02,46,16.70
2014,07,31,02,47,16.70
2014,07,31,02,48,16.60
2014,07,31,02,49,16.60
2014,07,31,02,50,16.60
2014,07,31,02,51,16.50
2014,07,31,02,52,16.40
2014,07,31,02,53,16.40
2014,07,31,02,54,16.40
2014,07,31,02,55,16.40
2014,07,31,02,56,16.40
2014,07,31,02,57,16.40
2014,07,31,02,58,16.30
2014,07,31,02,59,16.30
2014,07,31,03,00,16.30
2014,07,31,03,01,16.30
2014,07,31,03,02,16.20
2014,07,31,03,03,16.20
2014,07,31,03,04,16.20
2014,07,31,03,05,16.10
2014,07,31,03,06,16.10
2014,07,31,03,07,16.10
2014,07,31,03,08,16.10
2014,07,31,03,09,16.10
2014,07,31,03,10,15.90
2014,07,31,03,11,15.90
2014,07,31,03,12,15.90
2014,07,31,03,13,15.80
2014,07,31,03,14,15.80
2014,07,31,03,15,15.80
2014,07,31,03,16,15.80
2014,07,31,03,17,15.80
2014,07,31,03,18,15.80
2014,07,31,03,19,15.80
2014,07,31,03,20,15.70
2014,07,31,03,21,15.70
2014,07,31,03,22,15.70
2014,07,31,03,23,15.70
2014,07,31,03,24,15.70
2014,07,31,03,25,15.70
2014,07,31,03,26,15.70
2014,07,31,03,27,15.70
2014,07,31,03,28,15.70
2014,07,31,03,29,15.70
2014,07,31,03,30,15.70
2014,07,31,03,31,15.70
2014,07,31,03,32,15.70
2014,07,31,03,33,15.60
2014,07,31,03,34,15.60
2014,07,31,03,35,15.60
2014,07,31,03,36,15.60
2014,07,31,03,37,15.60
2014,07,31,03,38,15.60
2014,07,31,03,39,15.50
2014,07,31,03,40,15.50
2014,07,31,03,41,15.50
2014,07,31,03,42,15.50
2014,07,31,03,43,15.50
2014,07,31,03,44,15.50
2014,07,31,03,45,15.50
2014,07,31,03,46,15.50
2014,07,31,03,47,15.40
2014,07,31,03,48,15.40
2014,07,31,03,49,15.40
2014,07,31,03,50,15.40
2014,07,31,03,51,15.40
2014,07,31,03,52,15.40
2014,07,31,03,53,15.40
2014,07,31,03,54,15.30
2014,07,31,03,55,15.30
2014,07,31,03,56,15.30
2014,07,31,03,57,15.30
2014,07,31,03,58,15.30
2014,07,31,03,59,15.30
2014,07,31,04,00,15.30
2014,07,31,04,01,15.20
2014,07,31,04,02,15.20
2014,07,31,04,03,15.20
2014,07,31,04,04,15.20
2014,07,31,04,05,15.20
2014,07,31,04,06,15.20
2014,07,31,04,07,15.20
2014,07,31,04,08,15.20
2014,07,31,04,09,15.20
2014,07,31,04,10,15.20
2014,07,31,04,11,15.10
2014,07,31,04,12,15.10
2014,07,31,04,13,15.10
2014,07,31,04,14,15.10
2014,07,31,04,15,15.10
2014,07,31,04,16,15.10
2014,07,31,04,17,15.10
2014,07,31,04,18,15.10
2014,07,31,04,19,15.00
2014,07,31,04,20,15.00
2014,07,31,04,21,15.00
2014,07,31,04,22,15.00
2014,07,31,04,23,14.90
2014,07,31,04,24,14.90
2014,07,31,04,25,14.90
2014,07,31,04,26,14.90
2014,07,31,04,27,14.80
2014,07,31,04,28,14.80
2014,07,31,04,29,14.80
2014,07,31,04,30,14.80
2014,07,31,04,31,14.80
2014,07,31,04,32,14.80
2014,07,31,04,33,14.80
2014,07,31,04,34,14.80
2014,07,31,04,35,14.80
2014,07,31,04,36,14.80
2014,07,31,04,37,14.80
2014,07,31,04,38,14.80
2014,07,31,04,39,14.70
2014,07,31,04,40,14.70
2014,07,31,04,41,14.70
2014,07,31,04,42,14.70
2014,07,31,04,43,14.70
2014,07,31,04,44,14.60
2014,07,31,04,45,14.60
2014,07,31,04,46,14.60
2014,07,31,04,47,14.60
2014,07,31,04,48,14.60
2014,07,31,04,49,14.60
2014,07,31,04,50,14.50
2014,07,31,04,51,14.50
2014,07,31,04,52,14.50
2014,07,31,04,53,14.50
2014,07,31,04,54,14.40
2014,07,31,04,55,14.40
2014,07,31,04,56,14.40
2014,07,31,04,57,14.40
2014,07,31,04,58,14.30
2014,07,31,04,59,14.30
2014,07,31,05,00,14.30
2014,07,31,05,01,14.30
2014,07,31,05,02,14.20
2014,07,31,05,03,14.20
2014,07,31,05,04,14.20
2014,07,31,05,05,14.20
2014,07,31,05,06,14.20
2014,07,31,05,07,14.20
2014,07,31,05,08,14.20
2014,07,31,05,09,14.20
2014,07,31,05,10,14.10
2014,07,31,05,11,14.10
2014,07,31,05,12,14.10
2014,07,31,05,13,14.10
2014,07,31,05,14,14.10
2014,07,31,05,15,14.10
2014,07,31,05,16,14.10
2014,07,31,05,17,14.10
2014,07,31,05,18,14.10
2014,07,31,05,19,14.00
2014,07,31,05,20,14.00
2014,07,31,05,21,14.00
2014,07,31,05,22,14.00
2014,07,31,05,23,14.00
2014,07,31,05,24,14.00
2014,07,31,05,25,14.00
2014,07,31,05,26,14.00
2014,07,31,05,27,14.00
2014,07,31,05,28,14.00
2014,07,31,05,29,14.00
2014,07,31,05,30,14.00
2014,07,31,05,31,14.00
2014,07,31,05,32,14.00
2014,07,31,05,33,13.90
2014,07,31,05,34,13.90
2014,07,31,05,35,13.90
2014,07,31,05,36,13.90
2014,07,31,05,37,13.90
2014,07,31,05,38,13.90
2014,07,31,05,39,13.90
2014,07,31,05,40,13.90
2014,07,31,05,41,13.90
2014,07,31,05,42,13.90
2014,07,31,05,43,13.90
2014,07,31,05,44,13.90
2014,07,31,05,45,13.80
2014,07,31,05,46,13.80
2014,07,31,05,47,13.80
2014,07,31,05,48,13.80
2014,07,31,05,49,13.80
2014,07,31,05,50,13.80
2014,07,31,05,51,13.80
2014,07,31,05,52,13.80
2014,07,31,05,53,13.80
2014,07,31,05,54,13.70
2014,07,31,05,55,13.70
2014,07,31,05,56,13.70
2014,07,31,05,57,13.80
2014,07,31,05,58,13.80
2014,07,31,05,59,13.80
2014,07,31,06,00,13.80
2014,07,31,06,01,13.70
2014,07,31,06,02,13.70
2014,07,31,06,03,13.70
2014,07,31,06,04,13.70
2014,07,31,06,05,13.70
2014,07,31,06,06,13.70
2014,07,31,06,07,13.70
2014,07,31,06,08,13.70
2014,07,31,06,09,13.70
2014,07,31,06,10,13.70
2014,07,31,06,11,13.70
2014,07,31,06,12,13.70
2014,07,31,06,13,13.70
2014,07,31,06,14,13.70
2014,07,31,06,15,13.70
2014,07,31,06,16,13.70
2014,07,31,06,17,13.70
2014,07,31,06,18,13.70
2014,07,31,06,19,13.70
2014,07,31,06,20,13.70
2014,07,31,06,21,13.70
2014,07,31,06,22,13.70
2014,07,31,06,23,13.70
2014,07,31,06,24,13.70
2014,07,31,06,25,13.70
2014,07,31,06,26,13.70
2014,07,31,06,27,13.80
2014,07,31,06,28,13.80
2014,07,31,06,29,13.80
2014,07,31,06,30,13.90
2014,07,31,06,31,13.90
2014,07,31,06,32,14.00
2014,07,31,06,33,14.00
2014,07,31,06,34,14.00
2014,07,31,06,35,14.10
2014,07,31,06,36,14.20
2014,07,31,06,37,14.20
2014,07,31,06,38,14.30
2014,07,31,06,39,14.40
2014,07,31,06,40,14.50
2014,07,31,06,41,14.50
2014,07,31,06,42,14.60
2014,07,31,06,43,14.70
2014,07,31,06,44,14.80
2014,07,31,06,45,14.80
2014,07,31,06,46,14.90
2014,07,31,06,47,14.90
2014,07,31,06,48,15.00
2014,07,31,06,49,15.10
2014,07,31,06,50,15.10
2014,07,31,06,51,15.20
2014,07,31,06,52,15.30
2014,07,31,06,53,15.40
2014,07,31,06,54,15.50
2014,07,31,06,55,15.60
2014,07,31,06,56,15.60
2014,07,31,06,57,15.60
2014,07,31,06,58,15.60
2014,07,31,06,59,15.60
2014,07,31,07,00,15.70
2014,07,31,07,01,15.80
2014,07,31,07,02,15.80
2014,07,31,07,03,15.90
2014,07,31,07,04,16.00
2014,07,31,07,05,16.10
2014,07,31,07,06,16.10
2014,07,31,07,07,16.20
2014,07,31,07,08,16.20
2014,07,31,07,09,16.30
2014,07,31,07,10,16.30
2014,07,31,07,11,16.40
2014,07,31,07,12,16.40
2014,07,31,07,13,16.50
2014,07,31,07,14,16.60
2014,07,31,07,15,16.70
2014,07,31,07,16,16.80
2014,07,31,07,17,16.90
2014,07,31,07,18,17.00
2014,07,31,07,19,17.10
2014,07,31,07,20,17.20
2014,07,31,07,21,17.30
2014,07,31,07,22,17.30
2014,07,31,07,23,17.40
2014,07,31,07,24,17.40
2014,07,31,07,25,17.50
2014,07,31,07,26,17.60
2014,07,31,07,27,17.70
2014,07,31,07,28,17.80
2014,07,31,07,29,17.80
2014,07,31,07,30,17.90
2014,07,31,07,31,17.90
2014,07,31,07,32,18.00
2014,07,31,07,33,18.10
2014,07,31,07,34,18.20
2014,07,31,07,35,18.20
2014,07,31,07,36,18.30
2014,07,31,07,37,18.40
2014,07,31,07,38,18.40
2014,07,31,07,39,18.50
2014,07,31,07,40,18.60
2014,07,31,07,41,18.60
2014,07,31,07,42,18.70
2014,07,31,07,43,18.70
2014,07,31,07,44,18.80
2014,07,31,07,45,18.90
2014,07,31,07,46,18.90
2014,07,31,07,47,18.90
2014,07,31,07,48,19.00
2014,07,31,07,49,19.10
2014,07,31,07,50,19.10
2014,07,31,07,51,19.10
2014,07,31,07,52,19.20
2014,07,31,07,53,19.30
2014,07,31,07,54,19.30
2014,07,31,07,55,19.40
2014,07,31,07,56,19.50
2014,07,31,07,57,19.50
2014,07,31,07,58,19.60
2014,07,31,07,59,19.70
2014,07,31,08,00,19.70
2014,07,31,08,01,19.80
2014,07,31,08,02,19.90
2014,07,31,08,03,19.90
2014,07,31,08,04,19.90
2014,07,31,08,05,20.00
2014,07,31,08,06,20.10
2014,07,31,08,07,20.20
2014,07,31,08,08,20.20
2014,07,31,08,09,20.20
2014,07,31,08,10,20.40
2014,07,31,08,11,20.40
2014,07,31,08,12,20.50
2014,07,31,08,13,20.60
2014,07,31,08,14,20.70
2014,07,31,08,15,20.70
2014,07,31,08,16,20.80
2014,07,31,08,17,20.80
2014,07,31,08,18,20.90
2014,07,31,08,19,20.90
2014,07,31,08,20,21.00
2014,07,31,08,21,21.00
2014,07,31,08,22,21.10
2014,07,31,08,23,21.10
2014,07,31,08,24,21.20
2014,07,31,08,25,21.30
2014,07,31,08,26,21.40
2014,07,31,08,27,21.60
2014,07,31,08,28,21.60
2014,07,31,08,29,21.70
2014,07,31,08,30,21.80
2014,07,31,08,31,22.00
2014,07,31,08,32,22.10
2014,07,31,08,33,22.30
2014,07,31,08,34,22.50
2014,07,31,08,35,22.60
2014,07,31,08,36,22.70
2014,07,31,08,37,22.90
2014,07,31,08,38,23.00
2014,07,31,08,39,23.10
2014,07,31,08,40,23.20
2014,07,31,08,41,23.30
2014,07,31,08,42,23.30
2014,07,31,08,43,23.30
2014,07,31,08,44,23.30
2014,07,31,08,45,23.40
2014,07,31,08,46,23.50
2014,07,31,08,47,23.60
2014,07,31,08,48,23.70
2014,07,31,08,49,23.70
2014,07,31,08,50,23.70
2014,07,31,08,51,23.70
2014,07,31,08,52,23.70
2014,07,31,08,53,23.70
2014,07,31,08,54,23.70
2014,07,31,08,55,23.70
2014,07,31,08,56,23.70
2014,07,31,08,57,23.80
2014,07,31,08,58,23.80
2014,07,31,08,59,23.90
2014,07,31,09,00,23.90
2014,07,31,09,01,23.90
2014,07,31,09,02,23.90
2014,07,31,09,03,23.80
2014,07,31,09,04,23.70
2014,07,31,09,05,23.60
2014,07,31,09,06,23.50
2014,07,31,09,07,23.40
2014,07,31,09,08,23.30
2014,07,31,09,09,23.20
2014,07,31,09,10,23.10
2014,07,31,09,11,23.00
2014,07,31,09,12,22.90
2014,07,31,09,13,22.90
2014,07,31,09,14,22.90
2014,07,31,09,15,22.90
2014,07,31,09,16,23.00
2014,07,31,09,17,23.00
2014,07,31,09,18,22.90
2014,07,31,09,19,23.00
2014,07,31,09,20,23.10
2014,07,31,09,21,23.10
2014,07,31,09,22,23.20
2014,07,31,09,23,23.30
2014,07,31,09,24,23.30
2014,07,31,09,25,23.30
2014,07,31,09,26,23.30
2014,07,31,09,27,23.30
2014,07,31,09,28,23.20
2014,07,31,09,29,23.10
2014,07,31,09,30,23.00
2014,07,31,09,31,22.80
2014,07,31,09,32,22.70
2014,07,31,09,33,22.70
2014,07,31,09,34,22.70
2014,07,31,09,35,22.60
2014,07,31,09,36,22.60
2014,07,31,09,37,22.70
2014,07,31,09,38,22.70
2014,07,31,09,39,22.60
2014,07,31,09,40,22.70
2014,07,31,09,41,22.80
2014,07,31,09,42,22.90
2014,07,31,09,43,23.00
2014,07,31,09,44,23.20
2014,07,31,09,45,23.30
2014,07,31,09,46,23.50
2014,07,31,09,47,23.60
2014,07,31,09,48,23.70
2014,07,31,09,49,23.90
2014,07,31,09,50,24.00
2014,07,31,09,51,24.10
2014,07,31,09,52,24.20
2014,07,31,09,53,24.30
2014,07,31,09,54,24.30
2014,07,31,09,55,24.30
2014,07,31,09,56,24.30
2014,07,31,09,57,24.30
2014,07,31,09,58,24.20
2014,07,31,09,59,24.10
2014,07,31,10,00,23.90
2014,07,31,10,01,23.70
2014,07,31,10,02,23.60
2014,07,31,10,03,23.50
2014,07,31,10,04,23.40
2014,07,31,10,05,23.40
2014,07,31,10,06,23.20
2014,07,31,10,07,23.00
2014,07,31,10,08,22.90
2014,07,31,10,09,22.80
2014,07,31,10,10,22.80
2014,07,31,10,11,22.80
2014,07,31,10,12,22.80
2014,07,31,10,13,22.80
2014,07,31,10,14,22.80
2014,07,31,10,15,22.80
2014,07,31,10,16,22.80
2014,07,31,10,17,22.80
2014,07,31,10,18,22.90
2014,07,31,10,19,22.90
2014,07,31,10,20,23.00
2014,07,31,10,21,23.10
2014,07,31,10,22,23.20
2014,07,31,10,23,23.30
2014,07,31,10,24,23.50
2014,07,31,10,25,23.60
2014,07,31,10,26,23.50
2014,07,31,10,27,23.40
2014,07,31,10,28,23.20
2014,07,31,10,29,23.00
2014,07,31,10,30,22.80
2014,07,31,10,31,22.70
2014,07,31,10,32,22.60
2014,07,31,10,33,22.50
2014,07,31,10,34,22.50
2014,07,31,10,35,22.50
2014,07,31,10,36,22.30
2014,07,31,10,37,22.20
2014,07,31,10,38,22.00
2014,07,31,10,39,21.90
2014,07,31,10,40,21.80
2014,07,31,10,41,21.80
2014,07,31,10,42,21.80
2014,07,31,10,43,21.80
2014,07,31,10,44,21.80
2014,07,31,10,45,21.80
2014,07,31,10,46,21.80
2014,07,31,10,47,21.90
2014,07,31,10,48,22.00
2014,07,31,10,49,22.00
2014,07,31,10,50,22.10
2014,07,31,10,51,22.10
2014,07,31,10,52,22.10
2014,07,31,10,53,22.10
2014,07,31,10,54,22.00
2014,07,31,10,55,22.00
2014,07,31,10,56,21.90
2014,07,31,10,57,21.80
2014,07,31,10,58,21.70
2014,07,31,10,59,21.70
2014,07,31,11,00,21.60
2014,07,31,11,01,21.70
2014,07,31,11,02,21.70
2014,07,31,11,03,21.80
2014,07,31,11,04,22.00
2014,07,31,11,05,22.20
2014,07,31,11,06,22.40
2014,07,31,11,07,22.30
2014,07,31,11,08,22.30
2014,07,31,11,09,22.40
2014,07,31,11,10,22.50
2014,07,31,11,11,22.60
2014,07,31,11,12,22.70
2014,07,31,11,13,22.60
2014,07,31,11,14,22.60
2014,07,31,11,15,22.60
2014,07,31,11,16,22.60
2014,07,31,11,17,22.70
2014,07,31,11,18,22.80
2014,07,31,11,19,22.80
2014,07,31,11,20,22.80
2014,07,31,11,21,22.90
2014,07,31,11,22,23.10
2014,07,31,11,23,23.30
2014,07,31,11,24,23.30
2014,07,31,11,25,23.30
2014,07,31,11,26,23.30
2014,07,31,11,27,23.30
2014,07,31,11,28,23.30
2014,07,31,11,29,23.30
2014,07,31,11,30,23.30
2014,07,31,11,31,23.30
2014,07,31,11,32,23.30
2014,07,31,11,33,23.30
2014,07,31,11,34,23.50
2014,07,31,11,35,23.70
2014,07,31,11,36,23.70
2014,07,31,11,37,23.70
2014,07,31,11,38,23.70
2014,07,31,11,39,23.80
2014,07,31,11,40,23.70
2014,07,31,11,41,23.70
2014,07,31,11,42,23.80
2014,07,31,11,43,23.90
2014,07,31,11,44,24.00
2014,07,31,11,45,24.00
2014,07,31,11,46,23.70
2014,07,31,11,47,23.70
2014,07,31,11,48,23.60
2014,07,31,11,49,23.60
2014,07,31,11,50,23.60
2014,07,31,11,51,23.40
2014,07,31,11,52,23.30
2014,07,31,11,53,23.00
2014,07,31,11,54,22.80
2014,07,31,11,55,22.60
2014,07,31,11,56,22.50
2014,07,31,11,57,22.40
2014,07,31,11,58,22.30
2014,07,31,11,59,22.30
2014,07,31,12,00,22.50
2014,07,31,12,01,22.60
2014,07,31,12,02,22.70
2014,07,31,12,03,22.80
2014,07,31,12,04,23.00
2014,07,31,12,05,23.00
2014,07,31,12,06,22.90
2014,07,31,12,07,22.90
2014,07,31,12,08,22.90
2014,07,31,12,09,23.00
2014,07,31,12,10,23.10
2014,07,31,12,11,23.20
2014,07,31,12,12,23.20
2014,07,31,12,13,23.30
2014,07,31,12,14,23.40
2014,07,31,12,15,23.50
2014,07,31,12,16,23.70
2014,07,31,12,17,23.80
2014,07,31,12,18,23.90
2014,07,31,12,19,23.90
2014,07,31,12,20,23.90
2014,07,31,12,21,23.90
2014,07,31,12,22,23.90
2014,07,31,12,23,23.80
2014,07,31,12,24,23.60
2014,07,31,12,25,23.30
2014,07,31,12,26,23.10
2014,07,31,12,27,22.90
2014,07,31,12,28,23.00
2014,07,31,12,29,23.10
2014,07,31,12,30,23.10
2014,07,31,12,31,23.00
2014,07,31,12,32,22.90
2014,07,31,12,33,22.80
2014,07,31,12,34,22.80
2014,07,31,12,35,22.80
2014,07,31,12,36,22.80
2014,07,31,12,37,22.90
2014,07,31,12,38,23.00
2014,07,31,12,39,23.10
2014,07,31,12,40,23.20
2014,07,31,12,41,23.20
2014,07,31,12,42,23.30
2014,07,31,12,43,23.20
2014,07,31,12,44,23.20
2014,07,31,12,45,23.30
2014,07,31,12,46,23.30
2014,07,31,12,47,23.30
2014,07,31,12,48,23.30
2014,07,31,12,49,23.30
2014,07,31,12,50,23.50
2014,07,31,12,51,23.70
2014,07,31,12,52,23.80
2014,07,31,12,53,23.70
2014,07,31,12,54,23.60
2014,07,31,12,55,23.60
2014,07,31,12,56,23.70
2014,07,31,12,57,23.70
2014,07,31,12,58,23.80
2014,07,31,12,59,23.80
2014,07,31,13,00,23.70
2014,07,31,13,01,23.60
2014,07,31,13,02,23.40
2014,07,31,13,03,23.30
2014,07,31,13,04,23.30
2014,07,31,13,05,23.20
2014,07,31,13,06,23.20
2014,07,31,13,07,23.20
2014,07,31,13,08,23.20
2014,07,31,13,09,23.40
2014,07,31,13,10,23.40
2014,07,31,13,11,23.50
2014,07,31,13,12,23.60
2014,07,31,13,13,23.80
2014,07,31,13,14,24.00
2014,07,31,13,15,24.10
2014,07,31,13,16,24.30
2014,07,31,13,17,24.40
2014,07,31,13,18,24.60
2014,07,31,13,19,24.60
2014,07,31,13,20,24.70
2014,07,31,13,21,24.90
2014,07,31,13,22,25.00
2014,07,31,13,23,25.20
2014,07,31,13,24,25.30
2014,07,31,13,25,25.40
2014,07,31,13,26,25.40
2014,07,31,13,27,25.40
2014,07,31,13,28,25.40
2014,07,31,13,29,25.30
2014,07,31,13,30,25.20
2014,07,31,13,31,25.20
2014,07,31,13,32,25.20
2014,07,31,13,33,25.20
2014,07,31,13,34,25.20
2014,07,31,13,35,25.20
2014,07,31,13,36,25.20
2014,07,31,13,37,25.20
2014,07,31,13,38,25.10
2014,07,31,13,39,25.00
2014,07,31,13,40,24.90
2014,07,31,13,41,24.90
2014,07,31,13,42,24.80
2014,07,31,13,43,24.80
2014,07,31,13,44,24.70
2014,07,31,13,45,24.50
2014,07,31,13,46,24.40
2014,07,31,13,47,24.20
2014,07,31,13,48,24.20
2014,07,31,13,49,24.20
2014,07,31,13,50,24.10
2014,07,31,13,51,24.10
2014,07,31,13,52,24.10
2014,07,31,13,53,24.10
2014,07,31,13,54,24.00
2014,07,31,13,55,23.90
2014,07,31,13,56,23.90
2014,07,31,13,57,23.80
2014,07,31,13,58,23.70
2014,07,31,13,59,23.70
2014,07,31,14,00,23.70
2014,07,31,14,01,23.80
2014,07,31,14,02,23.90
2014,07,31,14,03,24.00
2014,07,31,14,04,24.10
2014,07,31,14,05,24.10
2014,07,31,14,06,24.20
2014,07,31,14,07,24.20
2014,07,31,14,08,24.20
2014,07,31,14,09,24.20
2014,07,31,14,10,24.30
2014,07,31,14,11,24.40
2014,07,31,14,12,24.40
2014,07,31,14,13,24.50
2014,07,31,14,14,24.60
2014,07,31,14,15,24.70
2014,07,31,14,16,24.60
2014,07,31,14,17,24.60
2014,07,31,14,18,24.60
2014,07,31,14,19,24.70
2014,07,31,14,20,24.80
2014,07,31,14,21,24.90
2014,07,31,14,22,25.10
2014,07,31,14,23,25.20
2014,07,31,14,24,25.20
2014,07,31,14,25,25.40
2014,07,31,14,26,25.40
2014,07,31,14,27,25.40
2014,07,31,14,28,25.40
2014,07,31,14,29,25.40
2014,07,31,14,30,25.30
2014,07,31,14,31,25.20
2014,07,31,14,32,25.20
2014,07,31,14,33,25.20
2014,07,31,14,34,25.20
2014,07,31,14,35,25.20
2014,07,31,14,36,25.30
2014,07,31,14,37,25.50
2014,07,31,14,38,25.60
2014,07,31,14,39,25.70
2014,07,31,14,40,25.80
2014,07,31,14,41,25.90
2014,07,31,14,42,25.80
2014,07,31,14,43,25.80
2014,07,31,14,44,25.90
2014,07,31,14,45,25.90
2014,07,31,14,46,25.80
2014,07,31,14,47,25.70
2014,07,31,14,48,25.70
2014,07,31,14,49,25.70
2014,07,31,14,50,25.80
2014,07,31,14,51,25.90
2014,07,31,14,52,26.00
2014,07,31,14,53,26.00
2014,07,31,14,54,26.00
2014,07,31,14,55,26.10
2014,07,31,14,56,26.20
2014,07,31,14,57,26.30
2014,07,31,14,58,26.30
2014,07,31,14,59,26.30
2014,07,31,15,00,26.30
2014,07,31,15,01,26.30
2014,07,31,15,02,26.20
2014,07,31,15,03,26.20
2014,07,31,15,04,26.20
2014,07,31,15,05,26.30
2014,07,31,15,06,26.40
2014,07,31,15,07,26.40
2014,07,31,15,08,26.40
2014,07,31,15,09,26.30
2014,07,31,15,10,26.20
2014,07,31,15,11,26.20
2014,07,31,15,12,26.10
2014,07,31,15,13,26.00
2014,07,31,15,14,25.90
2014,07,31,15,15,25.90
2014,07,31,15,16,25.90
2014,07,31,15,17,26.00
2014,07,31,15,18,26.00
2014,07,31,15,19,26.00
2014,07,31,15,20,26.00
2014,07,31,15,21,25.90
2014,07,31,15,22,25.90
2014,07,31,15,23,25.90
2014,07,31,15,24,26.10
2014,07,31,15,25,26.30
2014,07,31,15,26,26.40
2014,07,31,15,27,26.50
2014,07,31,15,28,26.60
2014,07,31,15,29,26.70
2014,07,31,15,30,26.90
2014,07,31,15,31,27.10
2014,07,31,15,32,27.10
2014,07,31,15,33,27.00
2014,07,31,15,34,26.90
2014,07,31,15,35,26.90
2014,07,31,15,36,26.90
2014,07,31,15,37,27.00
2014,07,31,15,38,27.10
2014,07,31,15,39,27.10
2014,07,31,15,40,27.10
2014,07,31,15,41,27.10
2014,07,31,15,42,27.10
2014,07,31,15,43,27.20
2014,07,31,15,44,27.30
2014,07,31,15,45,27.40
2014,07,31,15,46,27.40
2014,07,31,15,47,27.60
2014,07,31,15,48,27.60
2014,07,31,15,49,27.60
2014,07,31,15,50,27.40
2014,07,31,15,51,27.30
2014,07,31,15,52,27.30
2014,07,31,15,53,27.30
2014,07,31,15,54,27.30
2014,07,31,15,55,27.30
2014,07,31,15,56,27.30
2014,07,31,15,57,27.30
2014,07,31,15,58,27.30
2014,07,31,15,59,27.30
2014,07,31,16,00,27.30
2014,07,31,16,01,27.20
2014,07,31,16,02,26.90
2014,07,31,16,03,26.70
2014,07,31,16,04,26.60
2014,07,31,16,05,26.60
2014,07,31,16,06,26.60
2014,07,31,16,07,26.70
2014,07,31,16,08,26.70
2014,07,31,16,09,26.80
2014,07,31,16,10,26.90
2014,07,31,16,11,26.90
2014,07,31,16,12,26.90
2014,07,31,16,13,26.90
2014,07,31,16,14,26.90
2014,07,31,16,15,26.90
2014,07,31,16,16,26.80
2014,07,31,16,17,26.80
2014,07,31,16,18,26.80
2014,07,31,16,19,26.70
2014,07,31,16,20,26.80
2014,07,31,16,21,26.80
2014,07,31,16,22,26.80
2014,07,31,16,23,26.90
2014,07,31,16,24,27.10
2014,07,31,16,25,27.20
2014,07,31,16,26,27.40
2014,07,31,16,27,27.50
2014,07,31,16,28,27.70
2014,07,31,16,29,27.80
2014,07,31,16,30,28.00
2014,07,31,16,31,28.10
2014,07,31,16,32,28.20
2014,07,31,16,33,28.20
2014,07,31,16,34,28.30
2014,07,31,16,35,28.30
2014,07,31,16,36,28.40
2014,07,31,16,37,28.40
2014,07,31,16,38,28.60
2014,07,31,16,39,28.70
2014,07,31,16,40,28.80
2014,07,31,16,41,28.80
2014,07,31,16,42,28.80
2014,07,31,16,43,28.80
2014,07,31,16,44,28.80
2014,07,31,16,45,28.70
2014,07,31,16,46,28.80
2014,07,31,16,47,28.90
2014,07,31,16,48,28.90
2014,07,31,16,49,29.00
2014,07,31,16,50,29.10
2014,07,31,16,51,29.30
2014,07,31,16,52,29.40
2014,07,31,16,53,29.50
2014,07,31,16,54,29.50
2014,07,31,16,55,29.60
2014,07,31,16,56,29.70
2014,07,31,16,57,29.70
2014,07,31,16,58,29.70
2014,07,31,16,59,29.80
2014,07,31,17,00,29.80
2014,07,31,17,01,29.70
2014,07,31,17,02,29.70
2014,07,31,17,03,29.70
2014,07,31,17,04,29.70
2014,07,31,17,05,29.60
2014,07,31,17,06,29.60
2014,07,31,17,07,29.50
2014,07,31,17,08,29.50
2014,07,31,17,09,29.60
2014,07,31,17,10,29.60
2014,07,31,17,11,29.60
2014,07,31,17,12,29.70
2014,07,31,17,13,29.70
2014,07,31,17,14,29.60
2014,07,31,17,15,29.60
2014,07,31,17,16,29.60
2014,07,31,17,17,29.60
2014,07,31,17,18,29.50
2014,07,31,17,19,29.50